Hollywood, FL

4:41 AM EDT on May 30, 2017 (GMT -0400)
North Perry

Weather History for KHWO - November, 2013

Change the Weather History Date:

Friday, November 8, 2013

  Actual Average (KFLL) Record (KFLL)
Temperature  
Mean Temperature 78 °F -  
Max Temperature 84 °F 80 °F 89 °F (1958)
Min Temperature 71 °F 65 °F 44 °F (1923)
Cooling Degree Days 12    
Growing Degree Days 28 (Base 50)    
Moisture  
Dew Point 71 °F    
Average Humidity 89    
Maximum Humidity 100    
Minimum Humidity 55    
Precipitation  
Precipitation 0.82 in - - ()
Sea Level Pressure  
Sea Level Pressure 30.02 in    
Wind  
Wind Speed 9 mph (NNE)    
Max Wind Speed 18 mph    
Max Gust Speed 25 mph    
Visibility 8 miles    
Events Rain    
Averages and records for this station are not official NWS values.
T = Trace of Precipitation, MM = Missing Value Source: NWS Daily Summary

Daily Weather History Graph

Daily Weather History Graph

Search for Another Location

Airport or City:

Trip Planner

Search our weather history database for the weather conditions in past years. The results will help you decide how hot, cold, wet, or windy it might be!

Date:

Astronomy

Nov. 08, 2013 Rise Set
Actual Time 6:34 AM EST 5:34 PM EST
Civil Twilight 6:10 AM EST 5:58 PM EST
Nautical Twilight 5:42 AM EST 6:26 PM EST
Astronomical Twilight 5:15 AM EST 6:53 PM EST
Moon 11:28 AM EST (11/8) 10:52 PM EST (11/8)
Length of Visible Light 11h 48m
Length of Day
11h 00m
Waxing Crescent, 33% of the Moon is Illuminated
Nov 8
Waxing Crescent
Nov 10
First Quarter
Nov 17
Full
Nov 25
Last Quarter
Dec 2
New

Hourly Weather History & Observations

Time (EST) Temp. Heat Index Dew Point Humidity Pressure Visibility Wind Dir Wind Speed Gust Speed Precip Events Conditions
12:53 AM 73.0 °F - 68.0 °F 84% 29.98 in 10.0 mi North 6.9 mph - N/A   Clear
1:53 AM 72.0 °F - 68.0 °F 87% 29.97 in 10.0 mi North 6.9 mph - N/A   Clear
2:53 AM 71.1 °F - 66.9 °F 87% 29.96 in 10.0 mi North 5.8 mph - N/A   Clear
3:53 AM 71.1 °F - 68.0 °F 90% 29.96 in 10.0 mi NNW 8.1 mph - N/A   Clear
4:53 AM 71.1 °F - 66.9 °F 87% 29.98 in 10.0 mi North 6.9 mph - N/A   Scattered Clouds
5:53 AM 72.0 °F - 69.1 °F 91% 29.99 in 10.0 mi North 6.9 mph - N/A   Overcast
6:29 AM 71.6 °F - 69.8 °F 94% 30.00 in 8.0 mi North 6.9 mph - 0.00 in Rain Light Rain
6:53 AM 72.0 °F - 70.0 °F 93% 30.01 in 6.0 mi North 10.4 mph - 0.04 in Rain Light Rain
7:17 AM 71.6 °F - 69.8 °F 94% 30.02 in 5.0 mi NNW 4.6 mph - 0.02 in Rain Light Rain
7:49 AM 71.6 °F - 71.6 °F 100% 30.02 in 2.5 mi North 6.9 mph - 0.04 in Rain Light Rain
7:53 AM 72.0 °F - 71.1 °F 97% 30.03 in 3.0 mi North 5.8 mph - 0.04 in Rain Light Rain
8:02 AM 71.6 °F - 71.6 °F 100% 30.03 in 7.0 mi North 5.8 mph - 0.00 in Rain Light Rain
8:27 AM 73.4 °F - 71.6 °F 94% 30.03 in 10.0 mi North 10.4 mph - 0.01 in   Overcast
8:36 AM 73.4 °F - 71.6 °F 94% 30.04 in 4.0 mi NNE 8.1 mph - 0.01 in Rain Light Rain
8:51 AM 73.4 °F - 71.6 °F 94% 30.04 in 5.0 mi North 6.9 mph - 0.02 in Rain Light Rain
8:53 AM 73.0 °F - 71.1 °F 93% 30.04 in 6.0 mi North 6.9 mph - 0.02 in Rain Light Rain
9:53 AM 75.0 °F - 72.0 °F 90% 30.04 in 10.0 mi North 4.6 mph - 0.00 in   Overcast
10:53 AM 80.1 °F 84.2 °F 73.0 °F 79% 30.03 in 10.0 mi ENE 11.5 mph - N/A   Overcast
11:53 AM 82.9 °F 87.0 °F 70.0 °F 65% 30.02 in 10.0 mi NE 17.3 mph 24.2 mph N/A   Scattered Clouds
12:53 PM 84.0 °F 86.5 °F 66.9 °F 56% 29.99 in 10.0 mi NE 18.4 mph 25.3 mph N/A   Mostly Cloudy
1:53 PM 84.9 °F 87.6 °F 66.9 °F 55% 29.98 in 10.0 mi NE 16.1 mph - N/A   Partly Cloudy
2:53 PM 82.9 °F 85.8 °F 68.0 °F 60% 29.98 in 10.0 mi NE 16.1 mph 23.0 mph N/A   Partly Cloudy
3:53 PM 82.0 °F 85.5 °F 69.1 °F 65% 29.99 in 10.0 mi NE 11.5 mph - N/A   Scattered Clouds
4:53 PM 80.1 °F 83.2 °F 70.0 °F 71% 29.99 in 10.0 mi NNE 10.4 mph - N/A   Mostly Cloudy
5:53 PM 75.0 °F - 72.0 °F 90% 30.01 in 10.0 mi North 12.7 mph - 0.03 in   Overcast
6:16 PM 75.2 °F - 71.6 °F 89% 30.02 in 10.0 mi North 5.8 mph - 0.01 in Rain Light Rain
6:31 PM 73.4 °F - 71.6 °F 94% 30.02 in 7.0 mi North 8.1 mph - 0.02 in Rain Light Rain
6:53 PM 75.0 °F - 73.0 °F 94% 30.03 in 10.0 mi NE 3.5 mph - 0.08 in   Overcast
7:53 PM 75.0 °F - 73.0 °F 94% 30.04 in 10.0 mi NNW 5.8 mph - 0.07 in Rain Light Rain
8:18 PM 75.2 °F - 73.4 °F 94% 30.04 in 4.0 mi NE 5.8 mph 17.3 mph 0.03 in Rain Rain
8:30 PM 73.4 °F - 73.4 °F 100% 30.05 in 10.0 mi NNE 4.6 mph - 0.03 in Rain Light Rain
8:53 PM 73.9 °F - 72.0 °F 93% 30.05 in 10.0 mi North 9.2 mph - 0.04 in Rain Light Rain
9:02 PM 73.4 °F - 71.6 °F 94% 30.05 in 10.0 mi NNE 12.7 mph 20.7 mph 0.00 in Rain Light Rain
9:12 PM 73.4 °F - 71.6 °F 94% 30.05 in 2.5 mi NNE 8.1 mph 24.2 mph 0.13 in Rain Heavy Rain
9:23 PM 73.4 °F - 71.6 °F 94% 30.05 in 4.0 mi NE 16.1 mph 21.9 mph 0.16 in Rain Rain
9:40 PM 73.4 °F - 73.4 °F 100% 30.06 in 3.0 mi ENE 9.2 mph - 0.26 in Rain Heavy Rain
9:48 PM 73.4 °F - 73.4 °F 100% 30.06 in 5.0 mi ENE 12.7 mph - 0.28 in Rain Light Rain
9:53 PM 73.9 °F - 73.0 °F 97% 30.06 in 7.0 mi ENE 16.1 mph 23.0 mph 0.28 in Rain Light Rain
10:12 PM 73.4 °F - 73.4 °F 100% 30.06 in 2.5 mi ENE 12.7 mph - 0.19 in Rain Heavy Rain
10:17 PM 73.4 °F - 73.4 °F 100% 30.05 in 4.0 mi ENE 9.2 mph 17.3 mph 0.20 in Rain Rain
10:53 PM 75.0 °F - 73.0 °F 94% 30.05 in 10.0 mi ENE 8.1 mph - 0.21 in Rain Light Rain
11:39 PM 75.2 °F - 71.6 °F 89% 30.05 in 10.0 mi ENE 11.5 mph - 0.00 in Rain Light Rain
11:53 PM 75.0 °F - 72.0 °F 90% 30.05 in 6.0 mi ENE 16.1 mph 23.0 mph 0.01 in Rain Light Rain